Погода в Леушах

Россия / Ханты-Мансийский автономный округ - Югра     59°37′24″N   65°45′05″E
темп.,
°C
ветер,
м/с
пор.,
м/с
влажн.,
%
обл.,
%
осадки,
мм/ч
давл.,
гПа
погр.,
м
11 апреля, вс
вс1123:00+4ююв2499100 0.0 103580
02:00+4ю3798100 0.0 1034209
05:00+4ю5129699 0.0 1033459
08:00+4ююз6168573 0.0 1031561
11:00+8ююз61574100 0.0 1030618
14:00+9ююз61574100 0.0 1028639
17:00+9юз51481100 0.2 1028648
20:00+9юз51386100 0.1 1028688
12 апреля, пн
пн1223:00+8зюз41196100 0.7 1028695
02:00+6зсз4994100 0.1 1029589
05:00+4з3896100 0.1 1031260
08:00+5зсз31183100 0.0 1032554
11:00+8зсз595446 0.0 10331141
14:00+10сз69390 0.0 10351552
17:00+9сз49460 0.0 10361533
20:00+4з24690 0.0 103766
13 апреля, вт
вт1323:00+2з36760 0.0 1037115
02:00+1з27790 0.0 1038124
05:000зюз26815 0.0 103889
08:00+4зюз38615 0.0 1037280
11:00+9зюз5849100 0.0 1036774
14:00+12зюз68375 0.0 10341074
17:00+13зюз5944100 0.0 10311187
20:00+9юз31169100 0.0 1030273
14 апреля, ср
ср1423:00+8юз41186100 0.0 1028294
02:00+8юз31192100 0.0 1027307
05:00+7юз31193100 0.0 1026284
08:00+9юз4108480 0.0 1025313
11:00+15зюз5862100 0.0 1023704
14:00+17зюз5952100 0.0 10211218
17:00+19зюз494623 0.0 10201739
20:00+13зюз310590 0.0 1019222
15 апреля, чт
чт1523:00+10зюз413625 0.0 1018373
02:00+8зюз411765 0.0 1016271
05:00+7юз412835 0.0 1015266
08:00+10зюз4127132 0.0 1014390
11:00+15з585782 0.0 1013978
14:00+13ссз4770100 0.0 1014624
17:00+10с445645 0.0 1015651
20:00+6ссв4772100 0.0 1016553